Location: Carella
(45.8167°N, 9.2667°E)
Time: 13:13:01
(UTC+00:00)

Meteor 2-8 Rocket - Pass Details

Date: 30 March 2020
Orbit: 936 x 958 km, 82.5° (Epoch: 28 May)

Event Time Altitude Azimuth Distance (km) Brightness Sun altitude
Rises 18:24:21 0° 178° (S) 3,623 7.3 -6.9°
Reaches altitude 10° 18:26:51 10° 175° (S) 2,680 6.6 -7.3°
Maximum altitude 18:32:55 67° 95° (E) 1,034 4.5 -8.3°
Drops below altitude 10° 18:39:01 10° 14° (NNE) 2,687 6.8 -9.3°
Sets 18:41:31 0° 12° (NNE) 3,634 7.6 -9.8°
